Location: Newark
(43.4545°N, 5.8521°W)
Time: 23:29:13
(UTC+00:00)

ISS - Pass Details

Date: 21 November 2019
Orbit: 411 x 421 km, 51.6° (Epoch: 15 December)

Event Time Altitude Azimuth Distance (km) Brightness Sun altitude
Rises 18:08:33 0° 197° (SSW) 2,341 0.5 -13.5°
Reaches altitude 10° 18:11:06 10° 176° (S) 1,486 -0.8 -13.9°
Maximum altitude 18:13:22 17° 133° (SE) 1,131 -1.9 -14.3°
Enters shadow 18:13:41 17° 126° (SE) 1,139 -1.9 -14.4°
